Lumberton, NC

3:05 AM EDT on May 24, 2018 (GMT -0400)
Lumberton Municipal

Weather History for KLBT - January, 2012

Change the Weather History Date:

Thursday, January 5, 2012

  Actual Average Record
Temperature  
Mean Temperature 44 °F 43 °F  
Max Temperature 59 °F 53 °F 75 °F (2004)
Min Temperature 29 °F 33 °F 6 °F (2018)
Degree Days  
Heating Degree Days 21 22  
Month to date heating degree days 66 109  
Since 1 July heating degree days 970 1159  
Cooling Degree Days 0 0  
Month to date cooling degree days 0 0  
Year to date cooling degree days 0 0  
Moisture  
Dew Point 23 °F    
Average Humidity 53    
Maximum Humidity 82    
Minimum Humidity 24    
Precipitation  
Precipitation 0.00 in 0.09 in 0.33 in (2014)
Month to date precipitation 0.00 0.43  
Year to date precipitation 0.00 0.43  
Sea Level Pressure  
Sea Level Pressure 30.09 in    
Wind  
Wind Speed 4 mph (West)    
Max Wind Speed 14 mph    
Max Gust Speed 17 mph    
Visibility 10 miles    
Events      
T = Trace of Precipitation, MM = Missing Value Source: NWS Daily Summary

Daily Weather History Graph

Daily Weather History Graph

Search for Another Location

Airport or City:

Astronomy

Jan. 05, 2012 Rise Set
Actual Time 7:23 AM EST 5:19 PM EST
Civil Twilight 6:55 AM EST 5:47 PM EST
Nautical Twilight 6:24 AM EST 6:18 PM EST
Astronomical Twilight 5:54 AM EST 6:49 PM EST
Moon 2:22 PM EST (1/5) 4:07 AM EST (1/5)
Length of Visible Light 10h 51m
Length of Day
9h 55m
Waxing Gibbous, 87% of the Moon is Illuminated
Jan 5
Waxing Gibbous
Jan 9
Full
Jan 16
Last Quarter
Jan 23
New
Jan 30
First Quarter

Hourly Weather History & Observations

Time (EST) Temp. Windchill Dew Point Humidity Pressure Visibility Wind Dir Wind Speed Gust Speed Precip Events Conditions
12:54 AM 36.0 °F 30.3 °F 12.9 °F 39% 30.10 in 10.0 mi SW 6.9 mph - N/A   Clear
1:54 AM 35.1 °F 30.1 °F 14.0 °F 42% 30.09 in 10.0 mi SW 5.8 mph - N/A   Clear
2:54 AM 32.0 °F 27.5 °F 16.0 °F 52% 30.09 in 10.0 mi WSW 4.6 mph - N/A   Clear
3:54 AM 33.1 °F - 19.0 °F 56% 30.07 in 10.0 mi Calm Calm - N/A   Clear
5:54 AM 34.0 °F - 19.0 °F 54% 30.07 in 10.0 mi Calm Calm - N/A   Clear
7:54 AM 28.9 °F - 19.9 °F 69% 30.09 in 10.0 mi Calm Calm - N/A   Clear
8:54 AM 36.0 °F 32.1 °F 19.0 °F 50% 30.12 in 10.0 mi SW 4.6 mph - N/A   Clear
9:54 AM 43.0 °F 39.5 °F 21.0 °F 42% 30.14 in 10.0 mi WNW 5.8 mph - N/A   Clear
10:54 AM 46.9 °F - 23.0 °F 39% 30.12 in 10.0 mi Variable 3.5 mph - N/A   Clear
11:54 AM 52.0 °F - 26.1 °F 37% 30.10 in 10.0 mi NW 6.9 mph - N/A   Clear
12:54 PM 54.0 °F - 26.1 °F 34% 30.06 in 10.0 mi West 8.1 mph - N/A   Clear
1:54 PM 57.0 °F - 27.0 °F 32% 30.04 in 10.0 mi WNW 6.9 mph - N/A   Clear
2:54 PM 59.0 °F - 23.0 °F 25% 30.04 in 10.0 mi NW 11.5 mph - N/A   Clear
3:54 PM 59.0 °F - 24.1 °F 26% 30.05 in 10.0 mi NW 10.4 mph - N/A   Clear
4:54 PM 55.0 °F - 26.1 °F 33% 30.06 in 10.0 mi NW 6.9 mph - N/A   Clear
5:54 PM 44.1 °F - 28.0 °F 53% 30.08 in 10.0 mi Calm Calm - N/A   Clear
6:54 PM 42.1 °F - 28.0 °F 58% 30.09 in 10.0 mi Calm Calm - N/A   Clear
7:54 PM 39.0 °F - 28.9 °F 67% 30.11 in 10.0 mi Calm Calm - N/A   Clear
8:54 PM 36.0 °F - 28.9 °F 76% 30.12 in 10.0 mi Calm Calm - N/A   Clear
9:54 PM 33.1 °F - 28.0 °F 82% 30.11 in 7.0 mi Calm Calm - N/A   Clear
10:54 PM 35.1 °F - 28.0 °F 76% 30.12 in 9.0 mi Calm Calm - N/A   Clear
11:54 PM 32.0 °F - 28.0 °F 85% 30.10 in 4.0 mi Calm Calm - N/A   Clear